Zurück zum Katalog

QIANFAN-233

AktivKommunikationPO
NORAD 69862·PAYLOAD·🇨🇳 China

Gestartet Jul 5, 2026 von Wenchang Space Launch Site

Loading…

Nächste Überflüge (nächste 24 Stunden)

TLE

AktuellSource: Space-Track

Epoche: Sep 14, 2026, 20:47 UTC

1 69862U 26155Q   26257.86599863 -.01772176  00000-0 -27976+1 0  9990
2 69862  89.0077  54.2556 0036019  31.9744 328.3584 13.53759936  9988

Verfolge QIANFAN-233 in Echtzeit mit AllMySat

Download on the App Store